Tracking 28799 objects as of 18-Apr-2024
HD Live streaming from Space Station
objects crossing your sky now

STARLINK-1238

Track STARLINK-1238 now!
10-day predictions
STARLINK-1238 is classified as:


NORAD ID: 45233
Int'l Code: 2020-012BH
Perigee: 553.5 km
Apogee: 555.4 km
Inclination: 53.1 °
Period: 95.6 minutes
Semi major axis: 6925 km
RCS: Unknown
Launch date: February 17, 2020
Source: United States (US)
Launch site: AIR FORCE EASTERN TEST RANGE (AFETR)
Your satellite tracking list
Your tracking list is empty




NASA's NSSDC Master Catalog

Two Line Element Set (TLE):
1 45233U 20012BH  24108.61618577 -.00000571  00000-0 -19472-4 0  9990
2 45233  53.0538 248.9534 0001406  67.4869 292.6268 15.06372377230943
Source of the keplerian elements: AFSPC